Location: Lecco
(45.8566°N, 9.3977°E)
Time: 12:30:46
(UTC+02:00)

Vanguard 2 Rocket - Pass Details

Date: 16 August 2020
Orbit: 554 x 3326 km, 32.9° (Epoch: 24 September)

Event Time Altitude Azimuth Distance (km) Brightness Sun altitude
Rises 23:40:18 0° 258° (WSW) 4,648 10.7 -26.1°
Reaches altitude 10° 23:45:13 10° 235° (SW) 4,213 10.2 -26.5°
Maximum altitude 23:50:33 14° 208° (SSW) 4,406 10.0 -26.9°
Enters shadow 23:51:05 14° 205° (SSW) 4,459 10.0 -27.0°
Drops below altitude 10° 23:57:02 10° 182° (S) 5,317 - -27.4°
Sets 00:05:12 0° 162° (SSE) 6,873 - -28.0°
